User: anonymous   Login
Location: Vancouver
(49.2500°N, 123.1330°W)
Time: 05:13:28
(UTC-07:00)
Language:

S-56A Canister/Altair - Orbit

View from above orbital plane
View from above orbital plane
View from above satellite
View from above satellite

Ground track
Ground track

The orbit data is extracted from the following two-line orbital elements,

1    82U 61004B   17172.67929622 +.00000130 +00000-0 +13481-3 0  9996
2    82 038.8592 280.4694 1170784 215.2118 136.5455 12.25845495673817
Epoch (UTC): 21 June 2017 16:18:11
Eccentricity: 0.1170784
inclination: 38.8592°
perigee height: 637 km
apogee height: 2497 km
right ascension of ascending node: 280.4694°
argument of perigee: 215.2118°
revolutions per day: 12.25845495
mean anomaly at epoch: 136.5455°
orbit number at epoch: 67381

The dashed part of the orbit path shows where the satellite is in the earth's shadow,  

DLR